Location: Middlebury
(44.0153°N, 73.1678°W)
Time: 06:22:45
(UTC-04:00)

CAS-4B - Visible Passes

Search period start: 18 June 2024 00:00
Search period end: 28 June 2024 00:00
Orbit: 472 x 489 km, 43.0° (Epoch: 17 June)

Date Brightness Start Highest point End Pass type
(mag) Time Alt. Az. Time Alt. Az. Time Alt. Az.
18 Jun ? 01:40:37 19° E 01:40:37 19° E 01:41:54 10° E visible
18 Jun ? 03:14:47 22° WSW 03:17:07 75° S 03:20:53 10° E visible
19 Jun ? 01:13:09 12° E 01:13:09 12° E 01:13:27 10° E visible
19 Jun ? 02:47:19 37° WSW 02:48:39 75° S 02:52:25 10° E visible
19 Jun ? 04:23:44 10° W 04:27:28 62° SSW 04:31:13 10° ESE visible
20 Jun ? 02:19:53 69° SW 02:20:10 74° S 02:23:57 10° E visible
20 Jun ? 03:55:16 10° W 03:58:59 63° SSW 04:02:44 10° ESE visible
21 Jun ? 01:52:32 50° ESE 01:52:32 50° ESE 01:55:25 10° E visible
21 Jun ? 03:26:46 10° W 03:30:29 64° SSW 03:34:13 10° ESE visible
22 Jun ? 01:25:20 23° E 01:25:20 23° E 01:26:53 10° E visible
22 Jun ? 02:59:32 20° W 03:01:57 65° S 03:05:41 10° ESE visible
23 Jun ? 02:32:44 53° WSW 02:33:24 66° S 02:37:08 10° ESE visible
23 Jun ? 04:08:47 10° W 04:11:56 25° SSW 04:15:06 10° SSE visible
23 Jun ? 22:44:06 10° SW 22:44:48 14° SSW 22:44:48 14° SSW visible
24 Jun ? 02:06:49 25° ESE 02:06:49 25° ESE 02:08:32 10° ESE visible
24 Jun ? 03:41:08 15° WSW 03:43:22 26° SSW 03:46:33 10° SSE visible
24 Jun ? 22:15:32 10° SW 22:18:48 30° SSE 22:20:21 21° ESE visible
24 Jun ? 23:53:41 10° WSW 23:54:40 17° WSW 23:54:40 17° WSW visible
25 Jun ? 03:16:40 18° SSE 03:16:40 18° SSE 03:17:58 10° SSE visible
25 Jun ? 21:46:56 10° SW 21:50:11 29° SSE 21:53:26 10° E visible
25 Jun ? 23:25:03 10° WSW 23:28:41 69° S 23:28:41 69° S visible
26 Jun ? 21:18:19 10° SW 21:21:31 28° SSE 21:24:45 10° E visible
26 Jun ? 22:56:24 10° WSW 23:00:06 69° S 23:01:48 30° E visible
27 Jun ? 00:35:11 10° W 00:35:59 16° W 00:35:59 16° W visible
27 Jun ? 22:27:43 10° WSW 22:31:25 68° S 22:34:28 14° E visible
